Location: Chiroubles
(46.1812°N, 4.6660°E)
Time: 06:15:13
(UTC+00:00)

Transit 4A - Pass Details

Date: 01 December 2020
Orbit: 864 x 981 km, 66.8° (Epoch: 16 January)

Event Time Altitude Azimuth Distance (km) Brightness Sun altitude
Rises 11:47:28 0° 313° (NW) 3,691 10.7 21.8°
Reaches altitude 10° 11:52:29 10° 347° (NNW) 2,741 9.9 21.7°
Maximum altitude 11:54:21 11° 4° (N) 2,647 9.8 21.7°
Drops below altitude 10° 11:56:13 10° 21° (NNE) 2,733 9.9 21.7°
Sets 12:01:11 0° 55° (NE) 3,661 10.6 21.6°
